Location: W�rzburg
(49.7529°N, 9.8822°E)
Time: 08:52:04
(UTC+02:00)

OTV 5 (USA 277) - Visible Passes

Search period start: 25 May 2018 00:00
Search period end: 04 June 2018 00:00
Orbit: 308 x 326 km, 54.5° (Epoch: 06 May)

Date Brightness Start Highest point End Pass type
(mag) Time Alt. Az. Time Alt. Az. Time Alt. Az.
01 Jun ? 04:02:28 10° SSE 04:03:57 14° SE 04:05:27 10° ESE visible
02 Jun ? 04:15:49 11° SSW 04:18:07 28° SE 04:20:35 10° E visible
03 Jun ? 04:29:42 10° SW 04:32:26 63° SSE 04:35:11 10° ENE visible
